Погода в Игре

Россия / Удмуртская Республика     57°32′24″N   53°05′10″E
темп.,
°C
ветер,
м/с
пор.,
м/с
влажн.,
%
обл.,
%
осадки,
мм/ч
давл.,
гПа
погр.,
м
12 августа, пт
пт1201:00+12зюз269124 0.0 1022112
04:00+14з398072 0.0 1022290
07:00+14зюз3982100 0.0 1022269
10:00+20з595574 0.0 10211160
13:00+22з594656 0.0 10191700
16:00+23з594778 0.0 10181648
19:00+20з410605 0.0 1018929
22:00+16зюз412772 0.0 1018347
13 августа, сб
сб1301:00+15зюз412825 0.0 1017303
04:00+15з398397 0.0 1017258
07:00+16зсз39835 0.0 1018320
10:00+21сз48560 0.0 10181183
13:00+22сз58390 0.0 10191640
16:00+21сз57420 0.0 10191792
19:00+18сз26640 0.0 1020195
22:00+13ссз12780 0.0 102111
14 августа, вс
вс1401:00+11сз01775 0.0 102110
04:00+14юз2369100 0.0 102173
07:00+15з237317 0.0 1021141
10:00+20сз235391 0.0 1021849
13:00+19с126778 0.0 1021126
16:00+22сз335320 0.0 10201327
19:00+18зсз117734 0.2 102018
22:00+14с11874 0.3 102111
15 августа, пн
пн1501:00+12св22860 0.0 102215
04:00+11всв22810 0.0 102318
07:00+13св13745 0.0 1023112
10:00+19св23505 0.0 1023677
13:00+22ссв22400 0.0 10231855
16:00+22с33400 0.0 10231874
19:00+17с22640 0.0 102430
22:00+13всв22740 0.0 102518
16 августа, вт
вт1601:00+11в11760 0.0 102611
04:00+10всв00770 0.0 102710
07:00+14ссз01682 0.0 102757
10:00+20ссз22470 0.0 1027691
13:00+23ссз34405 0.0 10261677
16:00+23ссз34441 0.0 10251949
19:00+19зсз266679 0.0 1026129
22:00+15ссз22833 0.0 102615